Location: Sternwarte ZA, Rosenfeld-Brittheim
(48.2889°N, 8.6789°E)
Time: 03:04:41
(UTC+02:00)

ISS - Pass Details

Date: 03 July 2020
Orbit: 417 x 421 km, 51.6° (Epoch: 08 July)

Event Time Altitude Azimuth Distance (km) Brightness Sun altitude
Exits shadow 02:35:52 10° 120° (ESE) 1,484 -1.1 -17.2°
Drops below altitude 10° 02:35:58 10° 119° (ESE) 1,492 -1.1 -17.2°
Sets 02:39:30 0° 80° (E) 2,362 0.4 -17.1°
